Hourly Weather Novoaleksandrovka

Today, 29 October, Thursday

Time Temperature Precipitation Wind Pressure Humidity
00:00 +2°C° 0 mm 3 mps 773 mmHg 55%
01:00 +2°C° 0 mm 3 mps 772 mmHg 56%
02:00 +1°C° 0 mm 3 mps 772 mmHg 57%
03:00 +1°C° 0 mm 3 mps 772 mmHg 58%
04:00 0°C° 0 mm 4 mps 772 mmHg 59%
05:00 0°C° 0 mm 4 mps 772 mmHg 60%
06:00 0°C° 0 mm 4 mps 772 mmHg 61%
07:00 +1°C° 0 mm 4 mps 772 mmHg 58%
08:00 +3°C° 0 mm 4 mps 771 mmHg 55%
09:00 +3°C° 0 mm 5 mps 771 mmHg 51%
10:00 +5°C° 0 mm 5 mps 771 mmHg 48%
11:00 +7°C° 0 mm 5 mps 771 mmHg 46%
12:00 +8°C° 0 mm 5 mps 771 mmHg 43%
13:00 +9°C° 0 mm 6 mps 770 mmHg 44%
14:00 +9°C° 0 mm 6 mps 770 mmHg 45%
15:00 +9°C° 0 mm 6 mps 769 mmHg 47%
16:00 +8°C° 0 mm 6 mps 769 mmHg 50%
17:00 +8°C° 0 mm 5 mps 769 mmHg 53%
18:00 +7°C° 0 mm 5 mps 769 mmHg 56%
19:00 +7°C° 0 mm 5 mps 769 mmHg 55%
20:00 +7°C° 0 mm 5 mps 769 mmHg 54%
21:00 +7°C° 0 mm 4 mps 769 mmHg 53%
22:00 +6°C° 0 mm 5 mps 768 mmHg 54%
23:00 +6°C° 0 mm 5 mps 768 mmHg 55%

Tomorrow, 30 October, Friday

Time Temperature Precipitation Wind Pressure Humidity
00:00 +6°C° 0 mm 5 mps 768 mmHg 55%
01:00 +5°C° 0 mm 5 mps 767 mmHg 55%
02:00 +5°C° 0 mm 4 mps 767 mmHg 55%
03:00 +5°C° 0 mm 4 mps 767 mmHg 55%
04:00 +4°C° 0 mm 4 mps 767 mmHg 53%
05:00 +3°C° 0 mm 5 mps 766 mmHg 51%
06:00 +3°C° 0 mm 5 mps 766 mmHg 49%
07:00 +3°C° 0 mm 5 mps 766 mmHg 48%
08:00 +4°C° 0 mm 6 mps 766 mmHg 47%
09:00 +5°C° 0 mm 6 mps 767 mmHg 46%
10:00 +7°C° 0 mm 6 mps 766 mmHg 46%
11:00 +8°C° 0 mm 6 mps 766 mmHg 45%
12:00 +9°C° 0 mm 6 mps 766 mmHg 45%
13:00 +9°C° 0 mm 6 mps 765 mmHg 44%
14:00 +9°C° 0 mm 6 mps 765 mmHg 43%
15:00 +9°C° 0 mm 6 mps 765 mmHg 42%
16:00 +8°C° 0 mm 5 mps 765 mmHg 43%
17:00 +8°C° 0 mm 5 mps 764 mmHg 44%
18:00 +7°C° 0 mm 4 mps 764 mmHg 45%
19:00 +7°C° 0 mm 4 mps 764 mmHg 44%
20:00 +7°C° 0 mm 4 mps 764 mmHg 44%
21:00 +7°C° 0 mm 4 mps 764 mmHg 43%
22:00 +8°C° 0 mm 3 mps 763 mmHg 44%
23:00 +7°C° 0 mm 3 mps 763 mmHg 45%

Day after tomorrow, 31 October, Saturday

Time Temperature Precipitation Wind Pressure Humidity
00:00 +7°C° 0 mm 3 mps 763 mmHg 45%
01:00 +7°C° 0 mm 3 mps 762 mmHg 45%
02:00 +7°C° 0 mm 3 mps 762 mmHg 44%
03:00 +5°C° 0 mm 3 mps 762 mmHg 43%
04:00 +5°C° 0 mm 3 mps 762 mmHg 44%
05:00 +5°C° 0 mm 3 mps 762 mmHg 45%
06:00 +5°C° 0 mm 3 mps 762 mmHg 46%
07:00 +7°C° 0 mm 3 mps 762 mmHg 47%
08:00 +6°C° 0 mm 4 mps 762 mmHg 48%
09:00 +7°C° 0 mm 4 mps 762 mmHg 49%
10:00 +10°C° 0 mm 4 mps 762 mmHg 47%
11:00 +11°C° 0 mm 4 mps 762 mmHg 46%
12:00 +12°C° 0 mm 4 mps 761 mmHg 45%
13:00 +12°C° 0 mm 3 mps 761 mmHg 44%
14:00 +13°C° 0 mm 3 mps 761 mmHg 43%
15:00 +13°C° 0 mm 3 mps 761 mmHg 42%
16:00 +12°C° 0 mm 3 mps 761 mmHg 44%
17:00 +11°C° 0 mm 3 mps 761 mmHg 46%
18:00 +10°C° 0 mm 3 mps 762 mmHg 49%
19:00 +10°C° 0 mm 3 mps 762 mmHg 49%
20:00 +9°C° 0 mm 2 mps 762 mmHg 50%
21:00 +9°C° 0 mm 2 mps 762 mmHg 51%
22:00 +8°C° 0 mm 2 mps 762 mmHg 52%
23:00 +9°C° 0 mm 1 mps 762 mmHg 53%

1 November, Sunday

Time Temperature Precipitation Wind Pressure Humidity
00:00 +8°C° 0 mm 1 mps 762 mmHg 54%
01:00 +9°C° 0 mm 1 mps 762 mmHg 53%
02:00 +8°C° 0 mm 2 mps 763 mmHg 51%
03:00 +8°C° 0 mm 2 mps 763 mmHg 49%
04:00 +8°C° 0 mm 2 mps 763 mmHg 49%
05:00 +8°C° 0 mm 2 mps 763 mmHg 50%
06:00 +8°C° 0 mm 3 mps 763 mmHg 50%
07:00 +9°C° 0 mm 3 mps 763 mmHg 47%
08:00 +9°C° 0 mm 3 mps 763 mmHg 45%
09:00 +10°C° 0 mm 4 mps 764 mmHg 43%
10:00 +11°C° 0 mm 4 mps 764 mmHg 40%
11:00 +13°C° 0 mm 4 mps 764 mmHg 38%
12:00 +14°C° 0 mm 4 mps 764 mmHg 35%
13:00 +14°C° 0 mm 4 mps 764 mmHg 36%
14:00 +14°C° 0 mm 4 mps 764 mmHg 37%
15:00 +14°C° 0 mm 4 mps 764 mmHg 38%
16:00 +13°C° 0 mm 4 mps 765 mmHg 42%
17:00 +12°C° 0 mm 4 mps 765 mmHg 45%
18:00 +10°C° 0 mm 5 mps 765 mmHg 49%
19:00 +11°C° 0 mm 4 mps 765 mmHg 50%
20:00 +11°C° 0 mm 4 mps 766 mmHg 52%
21:00 +10°C° 0 mm 4 mps 766 mmHg 54%
22:00 +10°C° 0 mm 4 mps 766 mmHg 56%
23:00 +9°C° 0 mm 5 mps 767 mmHg 59%

2 November, Monday

Time Temperature Precipitation Wind Pressure Humidity
00:00 +8°C° 0 mm 5 mps 767 mmHg 61%
01:00 +8°C° 0 mm 5 mps 767 mmHg 64%
02:00 +7°C° 0 mm 5 mps 767 mmHg 66%
03:00 +7°C° 0 mm 4 mps 767 mmHg 68%
04:00 +7°C° 0 mm 4 mps 768 mmHg 70%
05:00 +6°C° 0 mm 4 mps 768 mmHg 73%
06:00 +6°C° 0 mm 4 mps 768 mmHg 75%
07:00 +7°C° 0 mm 5 mps 769 mmHg 72%
08:00 +7°C° 0 mm 5 mps 769 mmHg 69%
09:00 +8°C° 0 mm 6 mps 769 mmHg 66%
10:00 +9°C° 0 mm 5 mps 769 mmHg 61%
11:00 +12°C° 0 mm 5 mps 770 mmHg 57%
12:00 +13°C° 0 mm 5 mps 770 mmHg 53%
13:00 +13°C° 0 mm 5 mps 770 mmHg 53%
14:00 +13°C° 0 mm 5 mps 770 mmHg 54%
15:00 +13°C° 0 mm 5 mps 770 mmHg 54%
16:00 +12°C° 0 mm 5 mps 771 mmHg 59%
17:00 +10°C° 0 mm 5 mps 771 mmHg 64%
18:00 +9°C° 0 mm 5 mps 771 mmHg 70%
19:00 +8°C° 0 mm 5 mps 772 mmHg 69%
20:00 +8°C° 0 mm 5 mps 772 mmHg 68%
21:00 +7°C° 0 mm 5 mps 772 mmHg 68%
22:00 +7°C° 0 mm 4 mps 772 mmHg 67%
23:00 +6°C° 0 mm 4 mps 773 mmHg 66%

3 November, Tuesday

Time Temperature Precipitation Wind Pressure Humidity
00:00 +6°C° 0 mm 4 mps 773 mmHg 66%
01:00 +5°C° 0 mm 4 mps 773 mmHg 67%
02:00 +5°C° 0 mm 4 mps 773 mmHg 68%
03:00 +5°C° 0 mm 4 mps 774 mmHg 69%
04:00 +4°C° 0 mm 4 mps 774 mmHg 70%
05:00 +4°C° 0 mm 4 mps 774 mmHg 72%
06:00 +4°C° 0 mm 4 mps 774 mmHg 73%
07:00 +5°C° 0 mm 4 mps 774 mmHg 71%
08:00 +6°C° 0 mm 4 mps 775 mmHg 69%
09:00 +7°C° 0 mm 5 mps 775 mmHg 67%
10:00 +8°C° 0 mm 5 mps 775 mmHg 62%
11:00 +10°C° 0 mm 5 mps 775 mmHg 57%
12:00 +12°C° 0 mm 5 mps 775 mmHg 52%
13:00 +12°C° 0 mm 5 mps 775 mmHg 52%
14:00 +12°C° 0 mm 5 mps 775 mmHg 51%
15:00 +12°C° 0 mm 5 mps 775 mmHg 50%
16:00 +10°C° 0 mm 5 mps 775 mmHg 55%
17:00 +10°C° 0 mm 4 mps 775 mmHg 61%
18:00 +8°C° 0 mm 4 mps 775 mmHg 66%
19:00 +7°C° 0 mm 4 mps 775 mmHg 67%
20:00 +7°C° 0 mm 4 mps 775 mmHg 68%
21:00 +7°C° 0 mm 4 mps 775 mmHg 69%
22:00 +6°C° 0 mm 4 mps 775 mmHg 70%
23:00 +6°C° 0 mm 4 mps 776 mmHg 71%
Show more